Home   Weather   Barsinghausen   Past weeks

Flag for Germany Past Weather in Barsinghausen, Lower Saxony, Germany — Yesterday and Last 2 Weeks

Now
39 °F

Passing clouds.


Feels Like: 36 °F
Forecast: 31 / 48 °F
Wind: 5 mph from Southwest

Location: Wunstorf Airport

Current Time: Apr 28, 2017 at 1:06:36 am

Latest Report: Apr 28, 2017 at 12:20 am


Visibility: N/A

Pressure: 29.95 "Hg

Humidity: 70%

Dew Point: 30 °F

Location of BarsinghausenLocation

Past Weather in Barsinghausen — Graph

°F

Barsinghausen Temperature Yesterday

Maximum temperature yesterday: 52 °F (at 5:20 pm)
Minimum temperature yesterday: 32 °F (at 6:20 am)
Average temperature yesterday: 43 °F

High & Low Weather Summary for the Past Weeks

 TemperatureHumidityPressure
High55 °F (Apr 21, 2:20 pm)100% (Apr 25, 4:20 am)30.63 "Hg (Apr 25, 4:20 am)
Low27 °F (Apr 20, 5:20 am)34% (Apr 20, 2:20 pm)29.62 "Hg (Apr 25, 4:20 am)
Average44 °F70%30.07 "Hg
* Reported Apr 12 11:20 pm — Apr 27 11:20 pm, Barsinghausen, Weather by CustomWeather, © 2017

Note: Actual official high and low records may vary slightly from our data, if they occured in-between our weather recording intervals... More about our weather records

Advertising

Barsinghausen Weather History for the Previous 24 Hours

Scroll right to see more
 ConditionsComfort  
Time TempWeatherWind HumidityBarometerVisibility
11:20 pm
Thu, Apr 27
43 °FPassing clouds.5 mph61%29.95 "HgN/A
10:20 pm41 °FPassing clouds.6 mph70%29.95 "HgN/A
9:20 pm43 °FPassing clouds.5 mph61%29.95 "HgN/A
8:20 pm48 °FScattered clouds.7 mph46%29.95 "HgN/A
7:20 pm50 °FScattered clouds.7 mph40%29.95 "HgN/A
6:20 pm52 °FPartly sunny.6 mph35%29.95 "HgN/A
5:20 pm52 °FScattered clouds.9 mph35%29.95 "HgN/A
4:20 pm50 °FScattered clouds.9 mph37%29.95 "HgN/A
3:20 pm50 °FPartly sunny.12 mph37%29.95 "HgN/A
2:20 pm50 °FScattered clouds.6 mph37%29.95 "HgN/A
1:20 pm50 °FPartly sunny.10 mph47%29.98 "HgN/A
12:20 pm48 °FScattered clouds.8 mph46%29.98 "HgN/A
11:20 am48 °FPartly sunny.7 mph50%29.98 "HgN/A
10:20 am45 °FScattered clouds.9 mph61%29.98 "HgN/A
9:20 am43 °FScattered clouds.6 mph76%29.98 "HgN/A
8:20 am39 °FPartly sunny.6 mph81%29.98 "HgN/A
7:20 am36 °FPartly sunny.2 mph87%29.98 "HgN/A
6:20 am32 °FScattered clouds.6 mph87%29.95 "HgN/A
5:20 am34 °FPassing clouds.5 mph87%29.95 "HgN/A
4:20 am34 °FPassing clouds.3 mph87%29.95 "HgN/A
3:20 am34 °FPassing clouds.3 mph87%29.95 "HgN/A
2:20 am34 °FPassing clouds.2 mph93%29.95 "HgN/A
1:20 am34 °FPassing clouds.3 mph87%29.95 "HgN/A
Weather by CustomWeather, © 2017

See weather overviewHow to use our weather pages